Location: *
(41.3833°S, 177.8333°W)
Time: 18:35:44
(UTC+00:00)

COSMOS 2428 - Pass Details

Date: 01 April 2020
Orbit: 846 x 856 km, 70.9° (Epoch: 31 May)

Event Time Altitude Azimuth Distance (km) Brightness Sun altitude
Rises 16:31:41 0° 356° (N) 3,398 5.7 -18.8°
Reaches altitude 10° 16:34:12 10° 2° (N) 2,472 5.0 -18.3°
Maximum altitude 16:39:35 45° 73° (ENE) 1,147 3.8 -17.4°
Drops below altitude 10° 16:45:02 10° 144° (SE) 2,507 5.8 -16.3°
Sets 16:47:35 0° 150° (SSE) 3,451 6.4 -15.9°
